Time,TemperatureF,DewpointF,PressureIn,WindDirection,WindDirectionDegrees,WindSpeedMPH,WindSpeedGustMPH,Humidity,HourlyPrecipIn,Conditions,Clouds,dailyrainin,SoftwareType,DateUTC
2013-07-30 00:03:00,60.0,55.0,30.11,NW,304,0.0,0.0,83,0.00,,,0.01,,2013-07-30 04:03:00,
2013-07-30 00:43:00,60.0,55.0,30.11,NW,304,0.0,0.0,84,0.00,,,0.01,,2013-07-30 04:43:00,
2013-07-30 01:03:00,59.0,54.0,30.11,NW,304,0.0,0.0,85,0.00,,,0.01,,2013-07-30 05:03:00,
2013-07-30 01:13:00,59.0,54.0,30.12,NW,304,0.0,0.0,85,0.00,,,0.01,,2013-07-30 05:13:00,
2013-07-30 01:23:00,59.0,54.0,30.12,NW,304,0.0,0.0,85,0.00,,,0.01,,2013-07-30 05:23:00,
2013-07-30 01:45:00,58.0,54.0,30.12,NW,304,0.0,1.0,87,0.00,,,0.01,,2013-07-30 05:45:00,
2013-07-30 02:03:00,58.0,54.0,30.12,NW,304,0.0,0.0,87,0.00,,,0.01,,2013-07-30 06:03:00,
2013-07-30 02:13:00,58.0,54.0,30.12,NW,304,0.0,0.0,87,0.00,,,0.01,,2013-07-30 06:13:00,
2013-07-30 02:23:00,58.0,54.0,30.12,NW,304,0.0,0.0,87,0.00,,,0.01,,2013-07-30 06:23:00,
2013-07-30 02:43:00,58.0,55.0,30.12,NW,304,0.0,1.0,89,0.00,,,0.01,,2013-07-30 06:43:00,
2013-07-30 02:53:00,58.0,55.0,30.11,NW,304,0.0,1.0,89,0.00,,,0.01,,2013-07-30 06:53:00,
2013-07-30 03:03:00,58.0,54.0,30.11,NW,304,0.0,1.0,88,0.00,,,0.01,,2013-07-30 07:03:00,
2013-07-30 03:13:00,58.0,54.0,30.11,NW,304,0.0,0.0,88,0.00,,,0.01,,2013-07-30 07:13:00,
2013-07-30 03:23:00,58.0,54.0,30.11,NW,304,0.0,0.0,88,0.00,,,0.01,,2013-07-30 07:23:00,
2013-07-30 03:33:00,58.0,54.0,30.11,NW,304,0.0,0.0,88,0.00,,,0.01,,2013-07-30 07:33:00,
2013-07-30 03:43:00,59.0,55.0,30.11,NW,304,0.0,0.0,88,0.00,,,0.01,,2013-07-30 07:43:00,
2013-07-30 03:53:00,59.0,55.0,30.11,NW,304,0.0,0.0,88,0.00,,,0.01,,2013-07-30 07:53:00,
2013-07-30 04:33:00,58.0,54.0,30.12,NW,304,0.0,1.0,87,0.00,,,0.01,,2013-07-30 08:33:00,
2013-07-30 04:43:00,58.0,54.0,30.12,NW,304,0.0,0.0,88,0.00,,,0.01,,2013-07-30 08:43:00,
2013-07-30 04:53:00,58.0,54.0,30.12,NW,304,0.0,0.0,88,0.00,,,0.01,,2013-07-30 08:53:00,
2013-07-30 05:03:00,58.0,54.0,30.12,NW,304,0.0,0.0,88,0.00,,,0.01,,2013-07-30 09:03:00,
2013-07-30 05:33:00,58.0,54.0,30.12,NW,304,0.0,1.0,88,0.00,,,0.01,,2013-07-30 09:33:00,
2013-07-30 05:53:00,58.0,54.0,30.14,NW,304,0.0,1.0,88,0.00,,,0.01,,2013-07-30 09:53:00,
2013-07-30 07:02:00,59.0,55.0,30.15,NW,304,0.0,1.0,87,0.00,,,0.01,,2013-07-30 11:02:00,
2013-07-30 07:11:00,59.0,55.0,30.15,NW,304,0.0,0.0,87,0.00,,,0.01,,2013-07-30 11:11:00,
2013-07-30 07:53:00,61.0,55.0,30.16,West,261,0.0,4.0,82,0.00,,,0.01,,2013-07-30 11:53:00,
2013-07-30 08:12:00,63.0,57.0,30.17,WNW,301,0.0,3.0,80,0.00,,,0.01,,2013-07-30 12:12:00,
2013-07-30 08:33:00,66.0,58.0,30.17,North,360,0.0,4.0,75,0.00,,,0.01,,2013-07-30 12:33:00,
2013-07-30 08:42:00,66.0,57.0,30.17,NW,320,0.0,4.0,74,0.00,,,0.01,,2013-07-30 12:42:00,
2013-07-30 08:53:00,66.0,57.0,30.17,North,11,2.0,4.0,74,0.00,,,0.01,,2013-07-30 12:53:00,
2013-07-30 09:43:00,67.0,57.0,30.17,North,360,7.0,11.0,71,0.00,,,0.01,,2013-07-30 13:43:00,
2013-07-30 10:03:00,68.0,58.0,30.17,NW,317,2.0,6.0,71,0.00,,,0.01,,2013-07-30 14:03:00,
2013-07-30 10:43:00,69.0,58.0,30.17,NNE,28,0.0,10.0,67,0.00,,,0.00,,2013-07-30 14:43:00,
2013-07-30 10:53:00,70.0,58.0,30.17,East,79,1.0,10.0,66,0.00,,,0.00,,2013-07-30 14:53:00,
2013-07-30 11:33:00,72.0,57.0,30.16,NNE,20,4.0,7.0,60,0.00,,,0.00,,2013-07-30 15:33:00,
2013-07-30 11:43:00,72.0,58.0,30.16,North,360,2.0,11.0,62,0.00,,,0.00,,2013-07-30 15:43:00,
2013-07-30 11:52:00,72.0,58.0,30.16,North,360,2.0,11.0,62,0.00,,,0.00,,2013-07-30 15:52:00,
2013-07-30 12:44:00,74.0,58.0,30.15,NW,323,2.0,10.0,57,0.00,,,0.00,,2013-07-30 16:44:00,
2013-07-30 12:52:00,73.0,57.0,30.15,West,269,2.0,9.0,58,0.00,,,0.00,,2013-07-30 16:52:00,
2013-07-30 13:32:00,74.0,57.0,30.15,NNW,328,1.0,10.0,56,0.00,,,0.00,,2013-07-30 17:32:00,
2013-07-30 13:53:00,76.0,58.0,30.14,WNW,288,4.0,10.0,54,0.00,,,0.00,,2013-07-30 17:53:00,
2013-07-30 14:12:00,74.0,58.0,30.14,NW,324,0.0,7.0,57,0.00,,,0.00,,2013-07-30 18:12:00,
2013-07-30 15:03:00,76.0,58.0,30.13,WNW,290,0.0,5.0,54,0.00,,,0.00,,2013-07-30 19:03:00,
2013-07-30 15:33:00,77.0,57.0,30.12,WNW,290,0.0,5.0,51,0.00,,,0.00,,2013-07-30 19:33:00,
2013-07-30 15:44:00,76.0,59.0,30.12,NW,324,0.0,4.0,56,0.00,,,0.00,,2013-07-30 19:44:00,
2013-07-30 15:52:00,75.0,58.0,30.12,WNW,301,0.0,4.0,55,0.00,,,0.00,,2013-07-30 19:52:00,
2013-07-30 16:02:00,76.0,58.0,30.12,NE,44,3.0,7.0,53,0.00,,,0.00,,2013-07-30 20:02:00,
2013-07-30 16:13:00,76.0,58.0,30.12,NE,44,3.0,7.0,53,0.00,,,0.00,,2013-07-30 20:13:00,
2013-07-30 16:43:00,75.0,59.0,30.12,West,276,0.0,4.0,57,0.00,,,0.00,,2013-07-30 20:43:00,
2013-07-30 16:52:00,76.0,58.0,30.12,West,276,0.0,4.0,54,0.00,,,0.00,,2013-07-30 20:52:00,
2013-07-30 17:02:00,75.0,58.0,30.12,NNE,22,1.0,7.0,56,0.00,,,0.00,,2013-07-30 21:02:00,
2013-07-30 17:52:00,77.0,59.0,30.11,West,269,2.0,4.0,53,0.00,,,0.00,,2013-07-30 21:52:00,
2013-07-30 18:02:00,77.0,59.0,30.11,NW,306,1.0,6.0,54,0.00,,,0.00,,2013-07-30 22:02:00,
2013-07-30 18:32:00,75.0,60.0,30.12,NW,317,0.0,7.0,59,0.00,,,0.00,,2013-07-30 22:32:00,
2013-07-30 18:43:00,75.0,59.0,30.12,WNW,303,0.0,4.0,58,0.00,,,0.00,,2013-07-30 22:43:00,
2013-07-30 18:52:00,74.0,60.0,30.12,WNW,303,0.0,1.0,62,0.00,,,0.00,,2013-07-30 22:52:00,
2013-07-30 19:02:00,74.0,61.0,30.12,WNW,302,0.0,1.0,64,0.00,,,0.00,,2013-07-30 23:02:00,
2013-07-30 19:13:00,74.0,61.0,30.12,WSW,252,0.0,3.0,63,0.00,,,0.00,,2013-07-30 23:13:00,
2013-07-30 19:22:00,73.0,61.0,30.13,WSW,252,0.0,1.0,65,0.00,,,0.00,,2013-07-30 23:22:00,
2013-07-30 19:32:00,72.0,60.0,30.13,WSW,252,0.0,0.0,67,0.00,,,0.00,,2013-07-30 23:32:00,
2013-07-30 19:42:00,71.0,60.0,30.13,WSW,252,0.0,1.0,69,0.00,,,0.00,,2013-07-30 23:42:00,
2013-07-30 19:53:00,70.0,60.0,30.13,WSW,252,0.0,0.0,70,0.00,,,0.00,,2013-07-30 23:53:00,
2013-07-30 20:02:00,70.0,60.0,30.13,WSW,252,0.0,0.0,71,0.00,,,0.00,,2013-07-31 00:02:00,
2013-07-30 20:12:00,69.0,60.0,30.13,WSW,252,0.0,1.0,72,0.00,,,0.00,,2013-07-31 00:12:00,
2013-07-30 20:32:00,69.0,60.0,30.13,WSW,252,0.0,0.0,74,0.00,,,0.00,,2013-07-31 00:32:00,
2013-07-30 20:43:00,68.0,60.0,30.13,WSW,252,0.0,0.0,75,0.00,,,0.00,,2013-07-31 00:43:00,
2013-07-30 20:53:00,67.0,59.0,30.13,WSW,252,0.0,0.0,76,0.00,,,0.00,,2013-07-31 00:53:00,
2013-07-30 21:02:00,67.0,59.0,30.13,WSW,252,0.0,0.0,76,0.00,,,0.00,,2013-07-31 01:02:00,
2013-07-30 21:12:00,66.0,59.0,30.13,WSW,252,0.0,1.0,78,0.00,,,0.00,,2013-07-31 01:12:00,
2013-07-30 21:52:00,63.0,57.0,30.13,WSW,252,0.0,1.0,82,0.00,,,0.00,,2013-07-31 01:52:00,
2013-07-30 22:43:00,62.0,58.0,30.14,WSW,252,0.0,1.0,86,0.00,,,0.00,,2013-07-31 02:43:00,
2013-07-30 22:52:00,62.0,58.0,30.14,WSW,252,0.0,0.0,86,0.00,,,0.00,,2013-07-31 02:52:00,
2013-07-30 23:22:00,61.0,57.0,30.14,WSW,252,0.0,0.0,87,0.00,,,0.00,,2013-07-31 03:22:00,
2013-07-30 23:32:00,61.0,57.0,30.14,WSW,252,0.0,0.0,87,0.00,,,0.00,,2013-07-31 03:32:00,
2013-07-30 23:52:00,60.0,56.0,30.14,WSW,252,0.0,0.0,88,0.00,,,0.00,,2013-07-31 03:52:00,